Location: Mexico
(19.4000°N, 99.1500°W)
Time: 02:03:48
(UTC-06:00)

ISS - Pass Details

Date: 23 November 2017
Orbit: 402 x 407 km, 51.6° (Epoch: 21 November)

Event Time Altitude Azimuth Distance (km) Brightness Sun altitude
Exits shadow 05:12:23 30° 166° (SSE) 752 -2.3 -22.6°
Drops below altitude 10° 05:14:12 10° 153° (SSE) 1,440 -0.5 -22.2°
Sets 05:16:17 0° 149° (SSE) 2,297 0.7 -21.7°
